Change the Weather History Date:

Wednesday, October 24, 2012

  Actual Average Record
Temperature  
Mean Temperature 48 °F -  
Max Temperature 51 °F 45 °F 69 °F (2001)
Min Temperature 46 °F 31 °F 24 °F (2002)
Degree Days  
Heating Degree Days 16    
Moisture  
Dew Point 44 °F    
Average Humidity 81    
Maximum Humidity 87    
Minimum Humidity 70    
Precipitation  
Precipitation 0.00 in - - ()
Sea Level Pressure  
Sea Level Pressure 30.10 in    
Wind  
Wind Speed 5 mph ()    
Max Wind Speed 10 mph    
Max Gust Speed -    
Visibility 5.9 miles    
Events Rain    
Averages and records for this station are not official NWS values.
T = Trace of Precipitation, MM = Missing Value Source: Averaged Metar Reports

Daily Weather History Graph

Daily Weather History Graph

Search for Another Location

Airport or City:

Trip Planner

Search our weather history database for the weather conditions in past years. The results will help you decide how hot, cold, wet, or windy it might be!

Date:

Astronomy

Oct. 24, 2012 Rise Set
Actual Time 7:46 AM EDT 6:20 PM EDT
Civil Twilight 7:17 AM EDT 6:49 PM EDT
Nautical Twilight 6:43 AM EDT 7:23 PM EDT
Astronomical Twilight 6:09 AM EDT 7:57 PM EDT
Moon 3:44 PM EDT (10/24) 2:29 AM EDT (10/24)
Length of Visible Light 11h 32m
Length of Day
10h 33m
Waxing Gibbous, 76% of the Moon is Illuminated
Oct 24
Waxing Gibbous
Oct 29
Full
Nov 6
Last Quarter
Nov 13
New
Nov 20
First Quarter

Hourly Weather History & Observations

Time (EDT) Temp. Windchill Dew Point Humidity Pressure Visibility Wind Dir Wind Speed Gust Speed Precip Events Conditions
12:00 AM 48.2 °F - 41.0 °F 76% 30.13 in 9.0 mi SE 3.5 mph - N/A   Overcast
1:00 AM 48.2 °F - 41.0 °F 76% 30.13 in 9.0 mi ESE 5.8 mph - N/A   Overcast
2:00 AM 47 °F - 40 °F 70% 30.12 in 9 mi ESE 4.6 mph - -   Overcast
2:00 AM 48.2 °F - 41.0 °F 76% 30.12 in 9.0 mi East 4.6 mph - N/A   Overcast
3:00 AM 46.4 °F 42.9 °F 39.2 °F 76% 30.12 in 9.0 mi ESE 6.9 mph - N/A   Overcast
4:00 AM 46.4 °F 44.3 °F 41.0 °F 81% 30.12 in 9.0 mi ESE 4.6 mph - N/A   Overcast
5:55 AM 46.4 °F 45.2 °F 41.0 °F 81% 30.10 in 9.0 mi SE 3.5 mph - N/A Rain Light Rain
6:00 AM 46.4 °F 44.3 °F 41.0 °F 81% 30.12 in 9.0 mi SE 4.6 mph - N/A Rain Light Rain
6:08 AM 46.4 °F 45.2 °F 41.0 °F 81% 30.10 in 9.0 mi SE 3.5 mph - N/A   Overcast
7:00 AM 46.4 °F 44.3 °F 41.0 °F 81% 30.12 in 9.0 mi ESE 4.6 mph - N/A   Overcast
8:00 AM 46.4 °F - 41.0 °F 81% 30.14 in 9.0 mi SE 2.3 mph - N/A   Overcast
8:08 AM 46.4 °F - 41.0 °F 81% 30.12 in 9.0 mi SE 2.3 mph - N/A   Overcast
9:18 AM 48.2 °F - 41.0 °F 76% 30.11 in 9.0 mi SSE 5.8 mph - N/A   Overcast
9:24 AM 48.2 °F - 41.0 °F 76% 30.11 in 9.0 mi SSE 4.6 mph - N/A   Overcast
10:00 AM 48.2 °F - 41.0 °F 76% 30.13 in 9.0 mi SSE 5.8 mph - N/A   Overcast
10:57 AM 48.2 °F - 42.8 °F 82% 30.11 in 9.0 mi South 6.9 mph - N/A   Overcast
11:00 AM 48.2 °F - 42.8 °F 82% 30.12 in 9.0 mi South 5.8 mph - N/A   Overcast
12:00 PM 50.0 °F - 42.8 °F 76% 30.13 in 9.0 mi SSE 6.9 mph - N/A   Overcast
1:00 PM 50.0 °F - 44.6 °F 82% 30.10 in 9.0 mi SSE 9.2 mph - N/A   Overcast
2:00 PM 51 °F - 44 °F 70% 30.09 in 9 mi SSE 9.2 mph - -   Overcast
2:00 PM 51.8 °F - 44.6 °F 76% 30.09 in 9.0 mi SSE 10.4 mph - N/A   Overcast
2:16 PM 50.0 °F - 44.6 °F 82% 30.07 in 9.0 mi SSE 8.1 mph - N/A   Overcast
3:00 PM 50.0 °F - 44.6 °F 82% 30.09 in 9.0 mi SSE 6.9 mph - N/A   Overcast
4:00 PM 51.8 °F - 46.4 °F 82% 30.09 in 8.0 mi SSE 5.8 mph - N/A   Overcast
5:00 PM 51.8 °F - 46.4 °F 82% 30.09 in 8.0 mi SSE 6.9 mph - N/A   Overcast
6:00 PM 51.8 °F - 46.4 °F 82% 30.09 in 7.0 mi SSE 8.1 mph - N/A   Overcast
6:36 PM 51.8 °F - 46.4 °F 82% 30.08 in 5.0 mi SSE 9.2 mph - N/A   Overcast
6:46 PM 51.8 °F - 46.4 °F 82% 30.08 in 3.0 mi SE 8.1 mph - N/A   Overcast
6:52 PM 51.8 °F - 46.4 °F 82% 30.08 in 2.5 mi SSE 8.1 mph - N/A   Overcast
7:00 PM 51.8 °F - 46.4 °F 82% 30.10 in 2.2 mi SSE 9.2 mph - N/A   Overcast
7:55 PM 50.0 °F - 46.4 °F 87% 30.10 in 1.4 mi SSE 9.2 mph - N/A   Overcast
8:00 PM 50.0 °F - 46.4 °F 87% 30.12 in 1.1 mi SSE 10.4 mph - N/A   Overcast
8:08 PM 50.0 °F - 46.4 °F 87% 30.10 in 1.0 mi SSE 9.2 mph - N/A   Overcast
8:24 PM 50.0 °F - 46.4 °F 87% 30.10 in 0.6 mi SSE 9.2 mph - N/A   Overcast
8:32 PM 50.0 °F - 46.4 °F 87% 30.10 in 0.6 mi SSE 6.9 mph - N/A   Overcast
8:49 PM 50.0 °F - 46.4 °F 87% 30.10 in 1.0 mi SE 6.9 mph - N/A   Overcast
8:59 PM 50.0 °F - 46.4 °F 87% 30.10 in 1.1 mi SSE 5.8 mph - N/A   Overcast
9:00 PM 50.0 °F - 46.4 °F 87% 30.12 in 1.1 mi SSE 5.8 mph - N/A   Overcast
9:29 PM 50.0 °F - 46.4 °F 87% 30.10 in 1.5 mi SSE 6.9 mph - N/A   Overcast
9:32 PM 50.0 °F - 46.4 °F 87% 30.10 in 1.4 mi SSE 8.1 mph - N/A   Overcast
10:58 PM 50.0 °F - 46.4 °F 87% 30.09 in 2.0 mi SSE 6.9 mph - N/A   Overcast
11:00 PM 50.0 °F - 46.4 °F 87% 30.12 in 2.0 mi SSE 5.8 mph - N/A   Overcast
11:19 PM 51.8 °F - 46.4 °F 82% 30.09 in 2.5 mi SSE 8.1 mph - N/A   Overcast
11:33 PM 51.8 °F - 46.4 °F 82% 30.09 in 3.0 mi SSE 6.9 mph - N/A   Overcast
11:41 PM 51.8 °F - 46.4 °F 82% 30.09 in 3.5 mi SSE 5.8 mph - N/A   Overcast